Location: Springville
(37.3745°N, 89.2676°W)
Time: 14:35:02
(UTC+00:00)

Daily predictions for brighter satellites

Satellite Brightness Start Highest point End
(mag) Time Altitude Azimuth Time Altitude Azimuth Time Altitude Azimuth
Cosmos 1656 3.7 23:18:24 10° S 23:23:50 62° ESE 23:29:24 10° NNE
OAO 3 Rocket 4.4 23:22:59 10° W 23:27:32 41° SSW 23:31:59 10° SE
Cosmos 1300 2.7 23:23:51 10° S 23:27:39 87° W 23:31:29 10° N
Aureole 3 Rocket 3.4 23:24:52 10° SSE 23:28:32 47° E 23:33:31 10° NNE
CZ-4B R/B 1.1 23:25:42 10° NNE 23:28:51 69° ESE 23:31:54 10° S
NOAA 12 4.1 23:23:57 10° SSE 23:29:14 78° ENE 23:34:34 10° N
SAR-Lupe-4 4.1 23:26:09 10° NNE 23:29:31 38° E 23:32:52 10° S
NOSS 3-3 (A) 4.1 23:24:19 10° S 23:29:42 48° ESE 23:35:39 10° NE
NOSS 3-3 (C) 4.1 23:24:26 10° S 23:29:50 47° ESE 23:35:45 10° NE
Cosmos 1400 Rocket 2.9 23:27:55 10° S 23:31:58 62° E 23:36:00 10° NNE
CZ-4B R/B 3.5 23:28:22 10° S 23:33:58 80° WSW 23:39:32 10° NNW
Cosmos 2369 4.4 23:31:42 10° SSE 23:36:47 34° ESE 23:41:52 10° NE
H-2A R/B 3.9 23:33:08 10° N 23:36:47 31° WNW 23:40:24 10° SW
GPS 2-04 Rocket1 3.6 23:33:43 10° SW 23:37:26 37° SSE 23:41:12 10° E
ERS-2 2.3 23:34:41 10° N 23:38:20 74° WNW 23:41:57 10° SSW
COSMO-SKYMED 1 3.0 23:35:13 10° NNE 23:39:21 42° E 23:43:27 10° S
Cosmos 1302 Rocket 4.4 23:35:52 10° SSW 23:41:05 72° WNW 23:46:23 10° NNE
Helios 1A Rocket 4.1 23:38:15 10° ESE 23:41:26 22° ENE 23:44:37 10° NNE
OAO 2 Rocket 3.5 23:37:22 10° WSW 23:42:21 64° S 23:46:58 12° E
Cosmos 1244 Rocket 4.5 23:38:36 10° N 23:44:48 66° E 23:51:02 10° SSE
Cosmos 1825 Rocket 4.5 23:41:11 10° NNW 23:45:31 54° W 23:49:47 10° S
CZ-2D R/B 4.2 23:42:35 10° SE 23:45:43 25° ENE 23:48:52 10° NNE
SAR-Lupe-1 4.0 23:43:49 10° NNE 23:47:21 63° E 23:50:51 10° S
YAOGAN 1 3.9 23:44:27 10° ESE 23:47:30 19° ENE 23:50:33 10° NNE
Cosmos 1340 2.7 23:44:34 10° N 23:48:16 52° E 23:51:57 10° SSE
Cosmos 2227 Rocket 2.4 23:43:51 10° N 23:49:19 47° ENE 23:54:44 10° SE
CZ-4 R/B 2.5 23:48:27 10° ESE 23:51:28 22° ENE 23:54:28 10° NNE
Okean O Rocket 2.8 23:51:10 10° S 23:55:22 47° W 23:59:35 10° NNW
SL-4 R/B 4.1 23:56:27 10° N 23:57:34 11° NNE 23:58:43 10° NNE
